• Join FlightAware (Why Join?)
  • Login
  • US Flag 
03:21PM EST


 

Airport Tracker/Info


-or-


 

Live Flight TrackerFlight Track Log ✈ EJA871 ✈ 04-Jul-2014 ✈ KTEB - KROC

Flight Track Log - Related Links

Times and Time Zones

All times are in EDT time to prevent confusion due to time zone crossing. See the EJA871 flight status page for this flight to view local times or setup timezone preferences in your user account.

Time Position Orientation Groundspeed Altitude Reporting Facility
EDT Latitude Longitude Course Direction KTS MPH feet Rate Location/Type
09:43AM 40.8833 -74.0500 303° West 178 205 1,400  Level New York TRACON
09:44AM 40.9000 -74.0833 303° West 209 241 2,000 1,526 Climbing New York TRACON
09:45AM 40.8667 -74.1500 237° Southwest 231 266 4,300 2,842 Climbing New York TRACON
09:46AM 40.8667 -74.2500 270° West 279 321 7,400 2,102 Climbing New York TRACON
09:48AM 41.0078 -74.4006 321° Northwest 301 346 11,200 1,758 Climbing New York Center
09:49AM 41.0811 -74.4597 329° Northwest 330 380 13,200 2,331 Climbing New York Center
09:50AM 41.1703 -74.5361 327° Northwest 343 395 15,900 2,339 Climbing New York Center
09:51AM 41.2408 -74.6064 323° Northwest 348 400 17,800 1,800 Climbing New York Center
09:52AM 41.3039 -74.7175 307° West 348 400 19,500 1,100 Climbing New York Center
09:53AM 41.3689 -74.8319 307° West 366 421 20,000 254 Climbing New York Center
09:54AM 41.4353 -74.9550 306° West 389 448 20,000  Level New York Center
09:55AM 41.5058 -75.0811 307° West 409 471 20,000  Level New York Center
09:56AM 41.5719 -75.2047 306° West 415 478 20,000  Level New York Center
09:57AM 41.6403 -75.3258 307° West 415 478 20,000  Level New York Center
09:58AM 41.7081 -75.4556 305° West 415 478 20,000  Level New York Center
09:59AM 41.7761 -75.5772 307° West 415 478 20,000  Level New York Center
10:00AM 41.8397 -75.6986 305° West 410 472 20,000  Level New York Center
10:01AM 41.9056 -75.8206 306° West 410 472 20,000  Level New York Center
10:02AM 41.9689 -75.9425 305° West 410 472 20,000  Level New York Center
10:03AM 42.0344 -76.0622 306° West 410 472 20,000  Level New York Center
10:04AM 42.0997 -76.1875 305° West 405 466 20,000  Level New York Center
10:05AM 42.1647 -76.3103 306° West 405 466 20,000  Level New York Center
10:06AM 42.2311 -76.4322 306° West 404 465 20,000  Level Cleveland Center
10:07AM 42.2964 -76.5564 305° West 405 466 20,000  Level Cleveland Center
10:08AM 42.3619 -76.6811 305° West 405 466 20,000 -244 Level Cleveland Center
10:09AM 42.4258 -76.8033 305° West 405 466 19,500 -1,306 Descending Cleveland Center
10:10AM 42.4861 -76.9208 305° West 387 445 17,300 -1,985 Descending Cleveland Center
10:11AM 42.5706 -77.0497 312° West 360 414 15,200 -1,436 Descending Cleveland Center
10:12AM 42.6347 -77.1206 321° Northwest 345 397 14,500 -1,376 Descending Cleveland Center
10:13AM 42.7058 -77.2047 319° Northwest 340 391 12,700 -1,884 Descending Cleveland Center
10:14AM 42.7686 -77.2725 322° Northwest 268 308 10,700 -2,115 Descending Cleveland Center
10:15AM 42.8250 -77.3392 319° Northwest 267 307 8,400 -2,132 Descending Cleveland Center
10:16AM 42.8781 -77.3989 320° Northwest 244 281 6,400 -1,775 Descending Cleveland Center
10:16AM 42.8822 -77.4031 324° Northwest 256 295 6,300 -1,869 Descending Cleveland Center
10:17AM 42.9347 -77.4483 328° Northwest 239 275 4,500 -2,323 Descending Cleveland Center
10:17AM 42.9514 -77.4564 341° North 252 290 3,900 -2,222 Descending Cleveland Center
10:18AM 42.9922 -77.4778 339° North 242 278 2,500 -1,355 Descending Cleveland Center
10:18AM 43.0122 -77.4850 345° North 241 277 2,500  Level Cleveland Center
10:19AM 43.0461 -77.5006 341° North 192 221 2,500 -97 Level Cleveland Center
10:19AM 43.0636 -77.5103 338° Northwest 219 252 2,400 -300 Descending Cleveland Center
10:20AM 43.0886 -77.5319 328° Northwest 167 192 2,200 -393 Descending Cleveland Center
10:20AM 43.1003 -77.5450 321° Northwest 187 215 2,000 -537 Descending Cleveland Center
10:21AM 43.1194 -77.5836 304° West 145 167 1,600 -484 Descending Cleveland Center
10:21AM 43.1236 -77.5911 307° West 164 189 1,500 -689 Descending Cleveland Center
10:22AM 43.1233 -77.6308 269° West 124 143 900 -677 Descending Cleveland Center
10:22AM 43.1231 -77.6400 268° West 147 169 800 -225 Descending Cleveland Center
10:23AM 43.1208 -77.6856 266° West 143 165 600 -194 Descending Cleveland Center
10:25AM 43.1167 -77.6667 90° East  Level FlightAware Approximate
10:32AM 43.1191 -77.6719 90° East  Level Estimated